Regional Weather Roundup
Issued by NWS

Home | Current Version | Previous Version | Text Only | Print | Product List | Glossary Off
Versions: 1 2 3 4 5 6 7 8 9 10 11 12 13 14 15 16 17 18 19 20 21 22 23 24 25 26 27 28 29 30 31 32 33 34 35 36 37 38 39 40 41 42 43 44 45 46 47 48 49 50

000
ASUS45 KCYS 180510
RWRWY

WYOMING REGIONAL WEATHER ROUNDUP
NATIONAL WEATHER SERVICE CHEYENNE WY
1100 PM MDT WED SEP 17 2014

NOTE:  "FAIR" INDICATES FEW OR NO CLOUDS BELOW 12,000 FEET
WITH NO SIGNIFICANT WEATHER AND/OR OBSTRUCTIONS TO VISIBILITY.

WYZ001-180600-
YELLOWSTONE NATIONAL PARK

CITY           SKY/WX    TMP DP  RH WIND       PRES   REMARKS
LK YELLOWSTONE   N/A     43  37  79 CALM      30.20F
W YELLOWSTONE  NOT AVBL

$$
WYZ002>013-054>058-071-098>099-180600-
NORTHERN WYOMING

CITY           SKY/WX    TMP DP  RH WIND       PRES   REMARKS
JACKSON        CLEAR     54  39  58 NE3       30.09S
CODY             N/A    N/A N/A N/A MISG        N/A
GREYBULL       PTCLDY    64  47  53 NW5       29.93S
WORLAND        CLEAR     59  47  64 SW6       29.96R
SHERIDAN       MOCLDY    60  47  61 SE3       29.93F
BUFFALO        LGT RAIN  63  45  51 SW3       30.01F
GILLETTE       CLOUDY    63  49  60 SE7       29.97S
HULETT         FAIR      61  50  67 MISG      29.98
NEWCASTLE      FAIR      68  45  42 E8        29.98

$$
WYZ014>020-022>026-101>103-180600-
CENTRAL WYOMING

CITY           SKY/WX    TMP DP  RH WIND       PRES   REMARKS
BIG PINEY      CLEAR     48  43  82 NE6       30.17R
PINEDALE       CLEAR     45  37  76 W3        30.19R
DUBOIS         FAIR      52  37  58 NW5       30.17S
LANDER         PTCLDY    64  38  38 W10       30.04R
RIVERTON       PTCLDY    65  39  38 SW6       30.05R
CASPER         PTCLDY    62  38  40 W6        30.05R
DOUGLAS        PTCLDY    55  41  59 SE3       30.03S

$$
WYZ021-027>030-104>119-180600-
SOUTHERN WYOMING

CITY           SKY/WX    TMP DP  RH WIND       PRES   REMARKS
EVANSTON       PTCLDY    63  39  41 S6        30.15S
KEMMERER       CLEAR     59  36  41 N3        30.18R
FORT BRIDGER   FAIR      62  38  41 S10       30.17S
ROCK SPRINGS   CLEAR     63  34  33 S6        30.14S
DIXON          FAIR      58  42  54 E3        30.17S HAZE
RAWLINS        CLEAR     55  37  50 CALM      30.15S
SARATOGA       FAIR      52  41  66 SE8       30.19R
LARAMIE        CLEAR     50  39  66 S9        30.20R
CHEYENNE       CLEAR     57  41  55 W7        30.12S
TORRINGTON     CLEAR     60  46  59 SW3       29.97S
PINE BLUFFS    FAIR      52  43  71 W5        30.06S

$$



USA.gov is the U.S. government's official web portal to all federal, state and local government web resources and services.